^^
Datos históricos de la estación: Murcia-Puente Tocinos
Diario Informe para Mayo 26, 2019 Unidades:  Métrico    Inglés   Ambas
Diario Semanal Mensual Anual Configurable
  Máximo: Mínimo: Media:
Temperatura: 26.1 °C 15.2 °C 20.9 °C
Punto de rocio: 13.7 °C 9.8 °C 11.6 °C
Humedad: 85% 37% 58%
Velocidad viento: 25.6km/h 0.0km/h 9.8km/h
Racha viento: 44.4km/h - -
Viento- - SSE
Presión: 1017.2 hPa 1011.5 hPa -
Precipitación: 0.0 mm    
Historical Graphs
 
 
Tabla de datos para Mayo 26, 2019
Hora Temperatura Punto de rocio Presión Viento Velocidad viento Racha viento Humedad Intensidad lluvia(por hora) Nubes
00:04 18.3 °C 12.9 °C 1017.1 hPa SE 5.8 km/h 8.4 km/h 71% 0.0 mm CLR
00:09 18.3 °C 12.9 °C 1017.1 hPa ESE 5.8 km/h 9.5 km/h 71% 0.0 mm CLR
00:14 18.2 °C 12.8 °C 1017.1 hPa SE 5.8 km/h 10.0 km/h 71% 0.0 mm CLR
00:19 18.2 °C 12.8 °C 1017.2 hPa East 6.4 km/h 11.1 km/h 71% 0.0 mm CLR
00:24 18.2 °C 12.8 °C 1017.2 hPa SE 6.4 km/h 7.4 km/h 71% 0.0 mm CLR
00:29 18.3 °C 12.9 °C 1017.2 hPa ESE 5.8 km/h 9.3 km/h 71% 0.0 mm CLR
00:34 18.3 °C 12.9 °C 1017.2 hPa ESE 5.8 km/h 7.6 km/h 71% 0.0 mm CLR
00:39 18.3 °C 12.9 °C 1017.2 hPa ESE 5.0 km/h 9.3 km/h 71% 0.0 mm CLR
00:44 18.3 °C 12.9 °C 1017.2 hPa ESE 5.0 km/h 5.6 km/h 71% 0.0 mm CLR
00:49 18.3 °C 12.9 °C 1017.1 hPa ESE 4.7 km/h 7.4 km/h 71% 0.0 mm CLR
00:54 18.3 °C 12.9 °C 1017.1 hPa East 4.7 km/h 7.4 km/h 71% 0.0 mm CLR
00:59 18.2 °C 12.8 °C 1017.1 hPa East 5.0 km/h 7.4 km/h 71% 0.0 mm CLR
01:04 18.2 °C 12.8 °C 1017.0 hPa East 5.0 km/h 5.6 km/h 71% 0.0 mm CLR
01:09 18.2 °C 12.8 °C 1017.0 hPa East 3.2 km/h 5.6 km/h 71% 0.0 mm CLR
01:14 18.2 °C 12.8 °C 1017.0 hPa ESE 3.2 km/h 1.9 km/h 71% 0.0 mm CLR
01:19 18.2 °C 13.1 °C 1016.8 hPa Calm   3.7 km/h 72% 0.0 mm CLR
01:24 18.1 °C 12.9 °C 1016.8 hPa Calm   4.7 km/h 72% 0.0 mm CLR
01:29 17.9 °C 12.8 °C 1016.8 hPa NNW 2.9 km/h   72% 0.0 mm CLR
01:34 17.8 °C 12.9 °C 1016.8 hPa NNW 2.9 km/h 3.7 km/h 73% 0.0 mm CLR
01:39 17.8 °C 12.9 °C 1016.8 hPa NNW 2.9 km/h 5.6 km/h 73% 0.0 mm CLR
01:44 17.7 °C 13.0 °C 1016.8 hPa NNW 2.9 km/h 5.6 km/h 74% 0.0 mm CLR
01:49 17.5 °C 12.8 °C 1016.7 hPa WNW 3.9 km/h 7.4 km/h 74% 0.0 mm CLR
01:54 17.4 °C 12.9 °C 1016.7 hPa West 3.9 km/h 5.6 km/h 75% 0.0 mm CLR
01:59 17.4 °C 12.9 °C 1016.7 hPa West 3.9 km/h 3.7 km/h 75% 0.0 mm CLR
02:04 17.3 °C 12.8 °C 1016.7 hPa West 3.9 km/h 2.3 km/h 75% 0.0 mm CLR
02:09 17.3 °C 12.8 °C 1016.7 hPa Calm     75% 0.0 mm CLR
02:14 17.2 °C 12.9 °C 1016.7 hPa Calm   5.6 km/h 76% 0.0 mm CLR
02:19 17.2 °C 12.9 °C 1016.8 hPa West 2.3 km/h 1.9 km/h 76% 0.0 mm CLR
02:24 17.2 °C 12.9 °C 1016.8 hPa West 2.3 km/h   76% 0.0 mm CLR
02:29 17.2 °C 12.9 °C 1016.8 hPa Calm     76% 0.0 mm CLR
02:34 17.2 °C 12.9 °C 1016.7 hPa Calm   9.3 km/h 76% 0.0 mm CLR
02:39 17.2 °C 12.9 °C 1016.7 hPa SE 3.9 km/h 7.4 km/h 76% 0.0 mm CLR
02:44 17.2 °C 13.1 °C 1016.7 hPa SSE 3.9 km/h 7.4 km/h 77% 0.0 mm CLR
02:49 17.3 °C 13.2 °C 1016.5 hPa SE 5.0 km/h 7.4 km/h 77% 0.0 mm CLR
02:54 17.3 °C 13.2 °C 1016.5 hPa SE 5.0 km/h 5.6 km/h 77% 0.0 mm CLR
02:59 17.2 °C 13.1 °C 1016.5 hPa SE 3.9 km/h 5.6 km/h 77% 0.0 mm CLR
03:04 17.2 °C 13.1 °C 1016.4 hPa South 3.9 km/h 7.4 km/h 77% 0.0 mm CLR
03:09 17.2 °C 13.3 °C 1016.4 hPa SSW 5.0 km/h 9.3 km/h 78% 0.0 mm CLR
03:14 17.2 °C 13.3 °C 1016.4 hPa South 5.0 km/h 7.4 km/h 78% 0.0 mm CLR
03:19 17.2 °C 13.3 °C 1016.2 hPa SW 5.8 km/h 9.3 km/h 78% 0.0 mm CLR
03:24 17.2 °C 13.3 °C 1016.2 hPa SW 5.8 km/h 7.4 km/h 78% 0.0 mm CLR
03:29 17.2 °C 13.3 °C 1016.2 hPa SW 4.7 km/h 3.9 km/h 78% 0.0 mm CLR
03:34 17.2 °C 13.3 °C 1016.0 hPa South 4.7 km/h 7.4 km/h 78% 0.0 mm CLR
03:39 17.2 °C 13.3 °C 1016.0 hPa SE 3.9 km/h 7.4 km/h 78% 0.0 mm CLR
03:44 17.0 °C 13.1 °C 1016.0 hPa SSE 3.9 km/h 7.4 km/h 78% 0.0 mm CLR
03:49 16.8 °C 12.9 °C 1015.8 hPa SSE 5.0 km/h 7.6 km/h 78% 0.0 mm CLR
03:54 16.7 °C 13.1 °C 1015.8 hPa South 5.0 km/h 7.6 km/h 79% 0.0 mm CLR
03:59 16.6 °C 12.9 °C 1015.8 hPa South 5.0 km/h 5.8 km/h 79% 0.0 mm CLR
04:04 16.6 °C 13.1 °C 1015.8 hPa South 5.0 km/h 5.6 km/h 80% 0.0 mm CLR
04:09 16.6 °C 13.1 °C 1015.8 hPa South 3.2 km/h   80% 0.0 mm CLR
04:14 16.6 °C 13.1 °C 1015.8 hPa South 3.2 km/h   80% 0.0 mm CLR
04:19 16.6 °C 13.1 °C 1015.9 hPa Calm   6.9 km/h 80% 0.0 mm CLR
04:24 16.4 °C 12.9 °C 1015.9 hPa Calm   5.8 km/h 80% 0.0 mm CLR
04:29 16.4 °C 12.9 °C 1015.9 hPa South 3.9 km/h 7.4 km/h 80% 0.0 mm CLR
04:34 16.3 °C 13.1 °C 1015.8 hPa South 3.9 km/h 7.4 km/h 81% 0.0 mm CLR
04:39 16.3 °C 13.1 °C 1015.8 hPa SSW 5.8 km/h 9.3 km/h 81% 0.0 mm CLR
04:44 16.3 °C 13.1 °C 1015.8 hPa SSW 5.8 km/h 7.4 km/h 81% 0.0 mm CLR
04:49 16.3 °C 13.1 °C 1015.8 hPa WSW 5.0 km/h 7.4 km/h 81% 0.0 mm CLR
04:54 16.3 °C 13.1 °C 1015.8 hPa WSW 5.0 km/h 7.4 km/h 81% 0.0 mm CLR
04:59 16.3 °C 13.1 °C 1015.8 hPa WSW 4.7 km/h 7.4 km/h 81% 0.0 mm CLR
05:04 16.3 °C 13.1 °C 1015.7 hPa WSW 4.7 km/h 7.4 km/h 81% 0.0 mm CLR
05:09 16.2 °C 12.9 °C 1015.7 hPa SSW 4.7 km/h 5.6 km/h 81% 0.0 mm CLR
05:14 16.2 °C 12.9 °C 1015.7 hPa South 4.7 km/h 7.4 km/h 81% 0.0 mm CLR
05:19 16.1 °C 12.8 °C 1015.6 hPa South 5.0 km/h 7.4 km/h 81% 0.0 mm CLR
05:24 16.0 °C 12.9 °C 1015.6 hPa SSW 5.0 km/h 9.5 km/h 82% 0.0 mm CLR
05:29 15.9 °C 12.8 °C 1015.6 hPa SSW 6.4 km/h 7.6 km/h 82% 0.0 mm CLR
05:34 15.9 °C 13.0 °C 1015.7 hPa SSE 6.4 km/h 7.4 km/h 83% 0.0 mm CLR
05:39 15.8 °C 12.9 °C 1015.7 hPa SE 5.0 km/h 7.4 km/h 83% 0.0 mm CLR
05:44 15.7 °C 12.8 °C 1015.7 hPa SSE 5.0 km/h 7.4 km/h 83% 0.0 mm CLR
05:49 15.6 °C 12.7 °C 1015.4 hPa South 5.0 km/h 7.4 km/h 83% 0.0 mm CLR
05:54 15.5 °C 12.8 °C 1015.4 hPa South 5.0 km/h 5.6 km/h 84% 0.0 mm CLR
05:59 15.4 °C 12.7 °C 1015.4 hPa South 3.2 km/h 3.7 km/h 84% 0.0 mm CLR
06:04 15.4 °C 12.7 °C 1015.4 hPa South 3.2 km/h 3.7 km/h 84% 0.0 mm CLR
06:09 15.4 °C 12.7 °C 1015.4 hPa Calm     84% 0.0 mm CLR
06:14 15.3 °C 12.6 °C 1015.4 hPa Calm     84% 0.0 mm CLR
06:19 15.3 °C 12.8 °C 1015.5 hPa Calm   5.6 km/h 85% 0.0 mm CLR
06:24 15.3 °C 12.6 °C 1015.5 hPa Calm   7.6 km/h 84% 0.0 mm CLR
06:29 15.3 °C 12.6 °C 1015.5 hPa West 4.7 km/h 7.4 km/h 84% 0.0 mm CLR
06:34 15.2 °C 12.5 °C 1015.5 hPa West 4.7 km/h 5.6 km/h 84% 0.0 mm CLR
06:39 15.2 °C 12.5 °C 1015.5 hPa WSW 3.9 km/h 7.4 km/h 84% 0.0 mm CLR
06:44 15.2 °C 12.5 °C 1015.5 hPa WSW 3.9 km/h 5.6 km/h 84% 0.0 mm CLR
06:49 15.3 °C 12.6 °C 1015.5 hPa WSW 3.2 km/h 5.6 km/h 84% 0.0 mm CLR
06:54 15.3 °C 12.4 °C 1015.5 hPa WSW 3.2 km/h 3.7 km/h 83% 0.0 mm CLR
06:59 15.3 °C 12.4 °C 1015.5 hPa WSW 2.9 km/h 7.4 km/h 83% 0.0 mm CLR
07:04 15.4 °C 12.5 °C 1015.6 hPa WSW 2.9 km/h 7.4 km/h 83% 0.0 mm CLR
07:09 15.4 °C 12.5 °C 1015.6 hPa WSW 3.2 km/h 5.6 km/h 83% 0.0 mm CLR
07:14 15.5 °C 12.4 °C 1015.6 hPa South 3.2 km/h 7.4 km/h 82% 0.0 mm CLR
07:19 15.5 °C 12.4 °C 1015.8 hPa SE 3.2 km/h 7.4 km/h 82% 0.0 mm CLR
07:24 15.5 °C 12.4 °C 1015.8 hPa South 3.2 km/h 7.4 km/h 82% 0.0 mm CLR
07:29 15.6 °C 12.6 °C 1015.8 hPa South 4.7 km/h 7.4 km/h 82% 0.0 mm CLR
07:34 15.6 °C 12.6 °C 1015.8 hPa SSW 4.7 km/h 9.3 km/h 82% 0.0 mm CLR
07:39 15.6 °C 12.6 °C 1015.8 hPa South 5.8 km/h 9.3 km/h 82% 0.0 mm CLR
07:44 15.6 °C 12.6 °C 1015.8 hPa South 5.8 km/h 9.3 km/h 82% 0.0 mm CLR
07:49 15.7 °C 12.4 °C 1015.9 hPa SSW 5.0 km/h 9.3 km/h 81% 0.0 mm CLR
07:54 15.8 °C 12.6 °C 1015.9 hPa SW 5.0 km/h 7.4 km/h 81% 0.0 mm CLR
07:59 15.8 °C 12.6 °C 1015.9 hPa SW 6.9 km/h 7.4 km/h 81% 0.0 mm CLR
08:04 15.9 °C 12.4 °C 1016.0 hPa SSW 6.9 km/h 7.4 km/h 80% 0.0 mm CLR
08:09 15.9 °C 12.4 °C 1016.0 hPa SSW 6.4 km/h 13.0 km/h 80% 0.0 mm CLR
08:14 15.9 °C 12.4 °C 1016.0 hPa SW 6.4 km/h 11.1 km/h 80% 0.0 mm CLR
08:19 16.1 °C 12.7 °C 1016.1 hPa SSW 7.6 km/h 13.0 km/h 80% 0.0 mm CLR
08:24 16.2 °C 12.6 °C 1016.1 hPa SSW 7.6 km/h 11.1 km/h 79% 0.0 mm CLR
08:29 16.3 °C 12.7 °C 1016.1 hPa SSW 6.9 km/h 11.1 km/h 79% 0.0 mm CLR
08:34 16.3 °C 12.4 °C 1016.0 hPa SSW 6.9 km/h 7.4 km/h 78% 0.0 mm CLR
08:39 16.3 °C 12.4 °C 1016.0 hPa South 5.8 km/h 9.3 km/h 78% 0.0 mm CLR
08:44 16.4 °C 12.6 °C 1016.0 hPa WSW 5.8 km/h 10.0 km/h 78% 0.0 mm CLR
08:49 16.6 °C 12.7 °C 1015.9 hPa SW 5.0 km/h 7.4 km/h 78% 0.0 mm CLR
08:54 16.8 °C 12.7 °C 1015.9 hPa SW 5.0 km/h 7.4 km/h 77% 0.0 mm CLR
08:59 16.9 °C 12.7 °C 1015.9 hPa SW 5.0 km/h 7.4 km/h 76% 0.0 mm CLR
09:04 16.9 °C 12.7 °C 1016.0 hPa SSW 5.0 km/h 14.8 km/h 76% 0.0 mm CLR
09:09 16.9 °C 12.8 °C 1016.0 hPa SSW 9.5 km/h 13.0 km/h 77% 0.0 mm CLR
09:14 16.9 °C 12.8 °C 1016.0 hPa SSW 9.5 km/h 11.1 km/h 77% 0.0 mm CLR
09:19 17.1 °C 13.1 °C 1015.8 hPa SSW 6.9 km/h 8.4 km/h 77% 0.0 mm CLR
09:24 17.3 °C 13.2 °C 1015.8 hPa South 6.9 km/h 7.4 km/h 77% 0.0 mm CLR
09:29 17.4 °C 13.1 °C 1015.8 hPa SW 6.4 km/h 9.3 km/h 76% 0.0 mm CLR
09:34 17.5 °C 13.2 °C 1015.8 hPa SE 6.4 km/h 9.3 km/h 76% 0.0 mm CLR
09:39 17.8 °C 13.3 °C 1015.8 hPa SSW 6.9 km/h 13.0 km/h 75% 0.0 mm CLR
09:44 18.0 °C 13.3 °C 1015.8 hPa South 6.9 km/h 9.3 km/h 74% 0.0 mm CLR
09:49 18.3 °C 13.4 °C 1015.7 hPa SW 6.9 km/h 9.3 km/h 73% 0.0 mm CLR
09:54 18.4 °C 13.3 °C 1015.7 hPa SSW 6.9 km/h 7.4 km/h 72% 0.0 mm CLR
09:59 18.4 °C 13.4 °C 1015.7 hPa SSW 5.8 km/h 7.4 km/h 73% 0.0 mm CLR
10:04 18.5 °C 13.6 °C 1015.7 hPa SSW 5.8 km/h 9.3 km/h 73% 0.0 mm CLR
10:09 18.7 °C 13.6 °C 1015.7 hPa SW 5.8 km/h 7.4 km/h 72% 0.0 mm CLR
10:14 19.0 °C 13.4 °C 1015.7 hPa WNW 5.8 km/h 7.4 km/h 70% 0.0 mm CLR
10:19 19.2 °C 13.6 °C 1015.5 hPa WSW 3.9 km/h 7.4 km/h 70% 0.0 mm CLR
10:24 19.3 °C 13.4 °C 1015.5 hPa WSW 3.9 km/h 9.3 km/h 69% 0.0 mm CLR
10:29 19.4 °C 13.6 °C 1015.5 hPa SSE 5.0 km/h 5.6 km/h 69% 0.0 mm CLR
10:34 19.8 °C 13.5 °C 1015.4 hPa WSW 5.0 km/h 9.3 km/h 67% 0.0 mm CLR
10:39 20.2 °C 13.7 °C 1015.4 hPa SE 3.9 km/h 7.4 km/h 66% 0.0 mm CLR
10:44 20.5 °C 13.7 °C 1015.4 hPa WNW 3.9 km/h 7.4 km/h 65% 0.0 mm CLR
10:49 20.7 °C 13.4 °C 1015.3 hPa WNW 3.9 km/h 7.4 km/h 63% 0.0 mm CLR
10:54 20.9 °C 13.3 °C 1015.3 hPa NW 3.9 km/h 9.3 km/h 62% 0.0 mm CLR
10:59 21.0 °C 13.4 °C 1015.3 hPa SE 4.7 km/h 7.4 km/h 62% 0.0 mm CLR
11:04 21.2 °C 12.9 °C 1015.1 hPa WNW 4.7 km/h 9.3 km/h 59% 0.0 mm CLR
11:09 21.4 °C 13.1 °C 1015.1 hPa NE 3.9 km/h 7.4 km/h 59% 0.0 mm CLR
11:14 21.9 °C 13.0 °C 1015.1 hPa East 3.9 km/h 7.4 km/h 57% 0.0 mm CLR
11:19 22.4 °C 12.9 °C 1015.0 hPa NW 3.9 km/h 7.4 km/h 55% 0.0 mm CLR
11:24 22.6 °C 12.8 °C 1015.0 hPa NE 3.9 km/h 5.0 km/h 54% 0.0 mm CLR
11:29 22.8 °C 12.7 °C 1015.0 hPa WSW 3.9 km/h 7.6 km/h 53% 0.0 mm CLR
11:34 22.8 °C 12.4 °C 1015.0 hPa WNW 3.9 km/h 7.4 km/h 52% 0.0 mm CLR
11:39 22.9 °C 12.5 °C 1015.0 hPa WSW 4.7 km/h 8.4 km/h 52% 0.0 mm CLR
11:44 23.1 °C 12.1 °C 1015.0 hPa SSW 4.7 km/h 11.1 km/h 50% 0.0 mm CLR
11:49 23.3 °C 11.7 °C 1014.8 hPa SSW 4.7 km/h 13.0 km/h 48% 0.0 mm CLR
11:54 23.6 °C 11.6 °C 1014.8 hPa South 4.7 km/h 16.4 km/h 47% 0.0 mm CLR
11:59 23.7 °C 11.4 °C 1014.8 hPa SSE 6.9 km/h 11.1 km/h 46% 0.0 mm CLR
12:04 23.9 °C 11.2 °C 1014.8 hPa SSE 6.9 km/h 18.0 km/h 45% 0.0 mm CLR
12:09 24.2 °C 10.5 °C 1014.8 hPa South 7.6 km/h 14.0 km/h 42% 0.0 mm CLR
12:14 24.4 °C 10.3 °C 1014.8 hPa SSE 7.6 km/h 20.4 km/h 41% 0.0 mm CLR
12:19 24.4 °C 10.3 °C 1014.4 hPa SE 13.0 km/h 19.8 km/h 41% 0.0 mm CLR
12:24 24.6 °C 10.4 °C 1014.4 hPa SE 13.0 km/h 13.0 km/h 41% 0.0 mm CLR
12:29 24.7 °C 10.6 °C 1014.4 hPa SSE 10.0 km/h 25.9 km/h 41% 0.0 mm CLR
12:34 24.7 °C 10.6 °C 1014.4 hPa SSE 10.0 km/h 18.5 km/h 41% 0.0 mm CLR
12:39 24.9 °C 10.7 °C 1014.4 hPa SSE 11.9 km/h 18.0 km/h 41% 0.0 mm CLR
12:44 25.2 °C 10.6 °C 1014.4 hPa SSE 11.9 km/h 16.7 km/h 40% 0.0 mm CLR
12:49 25.1 °C 10.6 °C 1014.3 hPa ESE 12.2 km/h 27.8 km/h 40% 0.0 mm CLR
12:54 25.1 °C 10.6 °C 1014.3 hPa SE 12.2 km/h 24.1 km/h 40% 0.0 mm CLR
12:59 25.2 °C 10.3 °C 1014.3 hPa ESE 16.4 km/h 18.0 km/h 39% 0.0 mm CLR
13:04 25.2 °C 10.3 °C 1014.2 hPa South 16.4 km/h 20.4 km/h 39% 0.0 mm CLR
13:09 25.2 °C 10.3 °C 1014.2 hPa SSW 13.7 km/h 18.5 km/h 39% 0.0 mm CLR
13:14 25.3 °C 9.9 °C 1014.2 hPa SW 13.7 km/h 16.7 km/h 38% 0.0 mm CLR
13:19 25.4 °C 10.1 °C 1014.0 hPa SE 12.2 km/h 18.5 km/h 38% 0.0 mm CLR
13:24 25.4 °C 10.4 °C 1014.0 hPa ESE 12.2 km/h 18.5 km/h 39% 0.0 mm CLR
13:29 25.4 °C 10.4 °C 1014.0 hPa SE 13.7 km/h 14.0 km/h 39% 0.0 mm CLR
13:34 25.6 °C 10.2 °C 1013.8 hPa WSW 13.7 km/h 25.9 km/h 38% 0.0 mm CLR
13:39 25.6 °C 10.6 °C 1013.8 hPa SSE 13.7 km/h 20.4 km/h 39% 0.0 mm CLR
13:44 25.7 °C 9.9 °C 1013.8 hPa South 13.7 km/h 22.2 km/h 37% 0.0 mm CLR
13:49 25.3 °C 9.9 °C 1013.7 hPa SSE 14.0 km/h 20.4 km/h 38% 0.0 mm CLR
13:54 25.5 °C 10.5 °C 1013.7 hPa SSE 14.0 km/h 16.7 km/h 39% 0.0 mm CLR
13:59 25.7 °C 10.3 °C 1013.7 hPa SW 12.2 km/h 22.2 km/h 38% 0.0 mm CLR
14:04 25.8 °C 10.0 °C 1013.6 hPa SSW 12.2 km/h 26.2 km/h 37% 0.0 mm CLR
14:09 25.6 °C 9.8 °C 1013.6 hPa SSW 14.8 km/h 16.7 km/h 37% 0.0 mm CLR
14:14 25.6 °C 10.2 °C 1013.6 hPa SSE 14.8 km/h 24.1 km/h 38% 0.0 mm CLR
14:19 25.9 °C 10.1 °C 1013.5 hPa SSE 15.6 km/h 25.9 km/h 37% 0.0 mm CLR
14:24 25.9 °C 10.1 °C 1013.5 hPa SSE 15.6 km/h 24.1 km/h 37% 0.0 mm CLR
14:29 25.8 °C 10.4 °C 1013.5 hPa SSE 14.8 km/h 18.5 km/h 38% 0.0 mm CLR
14:34 26.0 °C 10.2 °C 1013.4 hPa South 14.8 km/h 16.7 km/h 37% 0.0 mm CLR
14:39 25.9 °C 10.1 °C 1013.4 hPa SSW 14.0 km/h 24.1 km/h 37% 0.0 mm CLR
14:44 26.1 °C 10.3 °C 1013.4 hPa SSE 14.0 km/h 22.5 km/h 37% 0.0 mm CLR
14:49 26.1 °C 10.7 °C 1013.2 hPa SSE 12.2 km/h 16.7 km/h 38% 0.0 mm CLR
14:54 25.6 °C 10.2 °C 1013.2 hPa SE 12.2 km/h 33.3 km/h 38% 0.0 mm CLR
14:59 25.6 °C 10.2 °C 1013.2 hPa SE 20.9 km/h 18.5 km/h 38% 0.0 mm CLR
15:04 25.7 °C 9.9 °C 1013.2 hPa SE 20.9 km/h 37.0 km/h 37% 0.0 mm CLR
15:09 25.8 °C 10.4 °C 1013.2 hPa SE 21.7 km/h 29.1 km/h 38% 0.0 mm CLR
15:14 25.9 °C 10.5 °C 1013.2 hPa South 21.7 km/h 35.2 km/h 38% 0.0 mm CLR
15:19 25.8 °C 10.0 °C 1013.0 hPa ESE 20.9 km/h 33.3 km/h 37% 0.0 mm CLR
15:24 25.8 °C 10.4 °C 1013.0 hPa South 20.9 km/h 29.6 km/h 38% 0.0 mm CLR
15:29 25.8 °C 10.0 °C 1013.0 hPa SE 21.7 km/h 37.0 km/h 37% 0.0 mm CLR
15:34 25.8 °C 10.0 °C 1013.0 hPa SSE 21.7 km/h 29.6 km/h 37% 0.0 mm CLR
15:39 25.8 °C 10.4 °C 1013.0 hPa SE 22.0 km/h 35.2 km/h 38% 0.0 mm CLR
15:44 25.9 °C 10.1 °C 1013.0 hPa SE 22.0 km/h 29.8 km/h 37% 0.0 mm CLR
15:49 25.6 °C 10.2 °C 1012.9 hPa SE 21.7 km/h 33.3 km/h 38% 0.0 mm CLR
15:54 25.6 °C 10.2 °C 1012.9 hPa SSE 21.7 km/h 37.0 km/h 38% 0.0 mm CLR
15:59 25.7 °C 9.9 °C 1012.9 hPa ESE 22.5 km/h 33.3 km/h 37% 0.0 mm CLR
16:04 25.5 °C 10.1 °C 1012.7 hPa SSE 22.5 km/h 36.2 km/h 38% 0.0 mm CLR
16:09 25.6 °C 10.2 °C 1012.7 hPa SE 23.3 km/h 29.6 km/h 38% 0.0 mm CLR
16:14 25.8 °C 10.4 °C 1012.7 hPa SSW 23.3 km/h 33.3 km/h 38% 0.0 mm CLR
16:19 26.0 °C 10.2 °C 1012.5 hPa SSE 20.1 km/h 30.6 km/h 37% 0.0 mm CLR
16:24 26.1 °C 10.3 °C 1012.5 hPa South 20.1 km/h 42.6 km/h 37% 0.0 mm CLR
16:29 25.9 °C 10.1 °C 1012.5 hPa SSE 21.7 km/h 37.0 km/h 37% 0.0 mm CLR
16:34 25.6 °C 10.2 °C 1012.5 hPa SSE 21.7 km/h 29.6 km/h 38% 0.0 mm CLR
16:39 25.6 °C 10.2 °C 1012.5 hPa SSE 23.3 km/h 37.0 km/h 38% 0.0 mm CLR
16:44 25.6 °C 10.6 °C 1012.5 hPa ESE 23.3 km/h 29.6 km/h 39% 0.0 mm CLR
16:49 25.7 °C 10.7 °C 1012.4 hPa SSE 23.7 km/h 40.7 km/h 39% 0.0 mm CLR
16:54 25.5 °C 10.5 °C 1012.4 hPa South 23.7 km/h 37.0 km/h 39% 0.0 mm CLR
16:59 25.5 °C 10.5 °C 1012.4 hPa SE 25.6 km/h 33.3 km/h 39% 0.0 mm CLR
17:04 25.7 °C 11.1 °C 1012.2 hPa South 25.6 km/h 34.6 km/h 40% 0.0 mm CLR
17:09 25.2 °C 10.3 °C 1012.2 hPa SE 22.5 km/h 37.0 km/h 39% 0.0 mm CLR
17:14 25.2 °C 10.6 °C 1012.2 hPa SSE 22.5 km/h 29.8 km/h 40% 0.0 mm CLR
17:19 25.4 °C 10.8 °C 1012.2 hPa SSE 23.7 km/h 31.5 km/h 40% 0.0 mm CLR
17:24 25.6 °C 10.6 °C 1012.2 hPa SSE 23.7 km/h 28.6 km/h 39% 0.0 mm CLR
17:29 25.2 °C 10.3 °C 1012.2 hPa SSE 23.3 km/h 44.4 km/h 39% 0.0 mm CLR
17:34 25.2 °C 10.6 °C 1012.1 hPa SSE 23.3 km/h 33.3 km/h 40% 0.0 mm CLR
17:39 25.1 °C 10.2 °C 1012.1 hPa South 24.5 km/h 33.3 km/h 39% 0.0 mm CLR
17:44 25.2 °C 10.3 °C 1012.1 hPa South 24.5 km/h 37.0 km/h 39% 0.0 mm CLR
17:49 25.2 °C 10.3 °C 1012.2 hPa South 22.5 km/h 27.8 km/h 39% 0.0 mm CLR
17:54 25.3 °C 10.7 °C 1012.2 hPa SE 22.5 km/h 27.8 km/h 40% 0.0 mm CLR
17:59 25.1 °C 10.6 °C 1012.2 hPa SSW 21.7 km/h 27.0 km/h 40% 0.0 mm CLR
18:04 25.2 °C 11.0 °C 1012.0 hPa SSE 21.7 km/h 25.9 km/h 41% 0.0 mm CLR
18:09 25.3 °C 10.7 °C 1012.0 hPa SE 21.7 km/h 33.3 km/h 40% 0.0 mm CLR
18:14 25.4 °C 10.8 °C 1012.0 hPa South 21.7 km/h 38.9 km/h 40% 0.0 mm CLR
18:19 25.1 °C 10.9 °C 1011.9 hPa SSW 21.7 km/h 38.9 km/h 41% 0.0 mm CLR
18:24 25.0 °C 10.8 °C 1011.9 hPa SSE 21.7 km/h 31.5 km/h 41% 0.0 mm CLR
18:29 24.9 °C 10.7 °C 1011.9 hPa SSE 22.5 km/h 33.3 km/h 41% 0.0 mm CLR
18:34 24.9 °C 10.7 °C 1011.9 hPa SE 22.5 km/h 35.2 km/h 41% 0.0 mm CLR
18:39 25.1 °C 10.9 °C 1011.9 hPa SE 22.5 km/h 24.1 km/h 41% 0.0 mm CLR
18:44 25.1 °C 10.9 °C 1011.9 hPa ESE 22.5 km/h 25.9 km/h 41% 0.0 mm CLR
18:49 24.9 °C 10.7 °C 1011.8 hPa SE 19.8 km/h 33.3 km/h 41% 0.0 mm CLR
18:54 25.1 °C 10.9 °C 1011.8 hPa SSE 19.8 km/h 24.1 km/h 41% 0.0 mm CLR
18:59 25.1 °C 10.9 °C 1011.8 hPa SSE 19.0 km/h 22.2 km/h 41% 0.0 mm CLR
19:04 25.1 °C 10.9 °C 1011.7 hPa SSE 19.0 km/h 24.1 km/h 41% 0.0 mm CLR
19:09 25.1 °C 10.9 °C 1011.7 hPa SE 18.0 km/h 30.9 km/h 41% 0.0 mm CLR
19:14 25.1 °C 10.9 °C 1011.7 hPa SE 18.0 km/h 25.9 km/h 41% 0.0 mm CLR
19:19 24.9 °C 10.7 °C 1011.5 hPa SSE 18.0 km/h 31.5 km/h 41% 0.0 mm CLR
19:24 24.7 °C 10.6 °C 1011.5 hPa South 18.0 km/h 33.3 km/h 41% 0.0 mm CLR
19:29 24.7 °C 10.6 °C 1011.5 hPa South 19.0 km/h 27.8 km/h 41% 0.0 mm CLR
19:34 24.6 °C 10.1 °C 1011.8 hPa SSE 19.0 km/h 28.6 km/h 40% 0.0 mm CLR
19:39 24.6 °C 10.1 °C 1011.8 hPa SSE 19.0 km/h 28.2 km/h 40% 0.0 mm CLR
19:44 24.4 °C 10.3 °C 1011.8 hPa SSE 19.0 km/h 31.5 km/h 41% 0.0 mm CLR
19:49 24.3 °C 10.2 °C 1011.8 hPa South 21.7 km/h 25.9 km/h 41% 0.0 mm CLR
19:54 24.4 °C 10.3 °C 1011.8 hPa SSE 21.7 km/h 20.4 km/h 41% 0.0 mm CLR
19:59 24.6 °C 10.4 °C 1011.8 hPa SSE 13.7 km/h 16.7 km/h 41% 0.0 mm CLR
20:04 24.4 °C 10.3 °C 1011.9 hPa SSE 13.7 km/h 20.1 km/h 41% 0.0 mm CLR
20:09 24.2 °C 10.1 °C 1011.9 hPa SSE 15.6 km/h 23.3 km/h 41% 0.0 mm CLR
20:14 24.2 °C 10.1 °C 1011.9 hPa SE 15.6 km/h 24.1 km/h 41% 0.0 mm CLR
20:19 24.2 °C 10.1 °C 1012.0 hPa SSE 14.8 km/h 16.7 km/h 41% 0.0 mm CLR
20:24 24.2 °C 10.1 °C 1012.0 hPa SSE 14.8 km/h 14.8 km/h 41% 0.0 mm CLR
20:29 24.1 °C 10.0 °C 1012.0 hPa SE 10.3 km/h 16.7 km/h 41% 0.0 mm CLR
20:34 24.0 °C 9.9 °C 1012.2 hPa SE 10.3 km/h 18.5 km/h 41% 0.0 mm CLR
20:39 23.9 °C 10.2 °C 1012.2 hPa SE 10.3 km/h 16.7 km/h 42% 0.0 mm CLR
20:44 23.9 °C 10.2 °C 1012.2 hPa ESE 10.3 km/h 13.0 km/h 42% 0.0 mm CLR
20:49 23.8 °C 10.1 °C 1012.3 hPa SE 9.5 km/h 14.8 km/h 42% 0.0 mm CLR
20:54 23.7 °C 10.4 °C 1012.3 hPa ESE 9.5 km/h 9.3 km/h 43% 0.0 mm CLR
20:59 23.4 °C 10.1 °C 1012.3 hPa ESE 8.7 km/h 18.5 km/h 43% 0.0 mm CLR
21:04 23.3 °C 10.3 °C 1012.4 hPa SE 8.7 km/h 13.0 km/h 44% 0.0 mm CLR
21:09 23.1 °C 10.2 °C 1012.4 hPa ESE 9.5 km/h 16.7 km/h 44% 0.0 mm CLR
21:14 22.9 °C 10.3 °C 1012.4 hPa SE 9.5 km/h 13.0 km/h 45% 0.0 mm CLR
21:19 22.8 °C 10.2 °C 1012.5 hPa ESE 10.3 km/h 18.5 km/h 45% 0.0 mm CLR
21:24 22.8 °C 10.2 °C 1012.5 hPa SE 10.3 km/h 15.6 km/h 45% 0.0 mm CLR
21:29 22.7 °C 10.2 °C 1012.5 hPa SE 10.3 km/h 22.2 km/h 45% 0.0 mm CLR
21:34 22.6 °C 10.4 °C 1012.5 hPa ESE 10.3 km/h 14.8 km/h 46% 0.0 mm CLR
21:39 22.4 °C 10.2 °C 1012.5 hPa ESE 11.1 km/h 20.4 km/h 46% 0.0 mm CLR
21:44 22.3 °C 10.4 °C 1012.5 hPa South 11.1 km/h 16.7 km/h 47% 0.0 mm CLR
21:49 22.2 °C 10.3 °C 1012.6 hPa SE 11.1 km/h 11.1 km/h 47% 0.0 mm CLR
21:54 22.1 °C 10.3 °C 1012.6 hPa SE 11.1 km/h 11.9 km/h 47% 0.0 mm CLR
21:59 22.1 °C 10.3 °C 1012.6 hPa SE 8.4 km/h 11.1 km/h 47% 0.0 mm CLR
22:04 22.0 °C 10.2 °C 1012.7 hPa SE 8.4 km/h 11.1 km/h 47% 0.0 mm CLR
22:09 21.9 °C 10.1 °C 1012.7 hPa SE 8.4 km/h 10.3 km/h 47% 0.0 mm CLR
22:14 21.9 °C 10.4 °C 1012.7 hPa ESE 8.4 km/h 9.3 km/h 48% 0.0 mm CLR
22:19 21.8 °C 10.3 °C 1012.9 hPa ESE 6.4 km/h 7.4 km/h 48% 0.0 mm CLR
22:24 21.7 °C 10.2 °C 1012.9 hPa East 6.4 km/h 5.6 km/h 48% 0.0 mm CLR
22:29 21.6 °C 10.1 °C 1012.9 hPa East 4.7 km/h 7.4 km/h 48% 0.0 mm CLR
22:34 21.6 °C 10.1 °C 1013.3 hPa East 4.7 km/h 3.2 km/h 48% 0.0 mm CLR
22:39 21.6 °C 10.4 °C 1013.3 hPa North 3.2 km/h 7.4 km/h 49% 0.0 mm CLR
22:44 21.4 °C 10.6 °C 1013.3 hPa NE 3.2 km/h 8.4 km/h 50% 0.0 mm CLR
22:49 21.2 °C 10.3 °C 1013.5 hPa NE 5.8 km/h 9.3 km/h 50% 0.0 mm CLR
22:54 21.2 °C 10.3 °C 1013.5 hPa ENE 5.8 km/h 7.4 km/h 50% 0.0 mm CLR
22:59 21.2 °C 10.3 °C 1013.5 hPa ENE 4.7 km/h 9.3 km/h 50% 0.0 mm CLR
23:04 21.2 °C 10.3 °C 1013.5 hPa NE 4.7 km/h 7.4 km/h 50% 0.0 mm CLR
23:09 21.1 °C 10.3 °C 1013.5 hPa NE 5.0 km/h 9.3 km/h 50% 0.0 mm CLR
23:14 21.1 °C 10.3 °C 1013.5 hPa North 5.0 km/h 9.3 km/h 50% 0.0 mm CLR
23:19 20.9 °C 10.4 °C 1013.6 hPa NNE 6.9 km/h 11.1 km/h 51% 0.0 mm CLR
23:24 20.8 °C 10.3 °C 1013.6 hPa NE 6.9 km/h 11.1 km/h 51% 0.0 mm CLR
23:29 20.7 °C 10.5 °C 1013.6 hPa NE 6.9 km/h 9.3 km/h 52% 0.0 mm CLR
23:34 20.7 °C 10.5 °C 1013.5 hPa NE 6.9 km/h 11.1 km/h 52% 0.0 mm CLR
23:39 20.6 °C 10.7 °C 1013.5 hPa NE 6.4 km/h 11.1 km/h 53% 0.0 mm CLR
23:44 20.4 °C 10.5 °C 1013.5 hPa NNE 6.4 km/h 11.1 km/h 53% 0.0 mm CLR
23:49 20.3 °C 10.7 °C 1013.7 hPa NE 8.4 km/h 8.4 km/h 54% 0.0 mm CLR
23:54 20.2 °C 10.6 °C 1013.7 hPa NE 8.4 km/h 9.5 km/h 54% 0.0 mm CLR
23:59 19.9 °C 11.4 °C 1013.7 hPa NNE 8.4 km/h 13.0 km/h 58% 0.0 mm CLR
Murcia-Puente Tocinos, España
Compliments of Weather Underground - 2.75 mb

La estación de MeteoMurcia.com, publica sus datos en los siguientes proyectos:

Weather Underground PWS IMURCIAP2 Meteoclimatic www.awekas.at

W3Counter
Web Analytics